Notices

What's New in latest Release from April 7th, 2021:

- Updated Glossary, including Speed of Maximum Gust, and Total Hourly Precipitation

- Updated national and regional climate services offices contacts and prices information

- Addition of station inventory lists for 1981-2010, 1971-2000, and 1961-1990 Normals.

If you haven't already, please take our survey and provide feedback about our website: https://eccc.sondage-survey.ca/f/LanguageSelection.aspx?s=442ca660-fcf1-47c0-95a9-59707d6fd709

Hourly Data Report for August 09, 2019

TORONTO CITY
ONTARIO
Current Station Operator: ECCC - MSC

43°40'00.000" N
79°24'00.000" W
112.50 m
6158355
71508
XTO

Download Data

Hourly Data (August 2019)
Hourly Data Report for August 9, 2019
TIME
LST
Temp Definition
°C
Dew Point Definition
°C
Rel Hum Definition
%
Precip. Amount Definition
mm

Wind Dir Definition
10's deg

Wind Spd Definition
km/h
Visibility Definition
km
Stn Press Definition
kPa
Hmdx Definition


Wind Chill Definition


Weather Definition


00:00 19.2 11.0 59 0.0       99.43     LegendNANA
01:00 18.6 11.5 63 0.0       99.42     LegendNANA
02:00 18.5 10.6 60 0.0       99.41     LegendNANA
03:00 17.6 10.9 65 0.0       99.38     LegendNANA
04:00 17.1 10.7 66 0.0       99.39     LegendNANA
05:00 16.6 10.6 68 0.0       99.43     LegendNANA
06:00 16.6 11.0 69 0.0       99.51     LegendNANA
07:00 17.7 11.1 65 0.0       99.54     LegendNANA
08:00 19.8 11.8 60 0.0       99.56     LegendNANA
09:00 22.0 11.0 50 0.0       99.56     LegendNANA
10:00 23.5 9.8 42 0.0       99.56 25   LegendNANA
11:00 24.1 9.6 40 0.0       99.57 25   LegendNANA
12:00 24.6 9.0 37 0.0       99.54 25   LegendNANA
13:00 25.1 8.9 36 0.0       99.49 26   LegendNANA
14:00 25.1 8.2 34 0.0       99.45 26   LegendNANA
15:00 25.1 8.9 36 0.0       99.41 26   LegendNANA
16:00 24.9 7.6 33 0.0       99.45 25   LegendNANA
17:00 24.4 7.9 35 0.0       99.48 25   LegendNANA
18:00 24.0 9.0 38 0.0       99.49 25   LegendNANA
19:00 23.3 9.3 41 0.0       99.55     LegendNANA
20:00 22.1 8.2 41 0.0       99.60     LegendNANA
21:00 20.9 8.5 45 0.0       99.68     LegendNANA
22:00 20.3 9.3 49 0.0       99.69     LegendNANA
23:00 19.2 9.9 55 0.0       99.72     LegendNANA

Notes on Data Quality.

Legend

  • E = Estimated
  • M = Missing
  • NA = Not Available*
  • [empty] = Indicates an unobserved value
Date modified: